Torna al catalogo

STARLINK-33662

AttivoComunicazioniVLEO
NORAD 63285·PAYLOAD·🇺🇸 United States

Lanciato Mar 15, 2025 da Cape Canaveral Space Force Station

Loading…

Prossimi Passaggi (prossime 24 ore)

TLE

AggiornatoSource: CelesTrak SupGP

Epoca: Sep 15, 2026, 03:33 UTC

1 63285C 25053W   26258.14840278 -.00041051  00000+0 -14871-2 0  2589
2 63285  43.0028 251.6969 0001364 268.2540 322.1553 15.27593115    13

Traccia STARLINK-33662 in tempo reale con AllMySat

Download on the App Store